This is the latest recevied weather packets stored in our database for station/object SQ7KHZ-10. If no packets are shown the sender has not sent any weather packets the latest 10 day(s).
| Time | Temp. | Humidity | Pressure | Rain* | Wind** | Luminosity | Snow |
|---|---|---|---|---|---|---|---|
| 1777866354 | 7.22° C | 81% | 1014.1 hPa | 0 mm | - | - | - |
| 1777865153 | 7.22° C | 82% | 1014 hPa | 0 mm | - | - | - |
| 1777863951 | 6.11° C | 84% | 1014 hPa | 0 mm | - | - | - |
| 1777862750 | 6.11° C | 86% | 1014 hPa | 0 mm | - | - | - |
| 1777861549 | 6.67° C | 84% | 1014.1 hPa | 0 mm | - | - | - |
| 1777860349 | 7.22° C | 83% | 1014.1 hPa | 0 mm | - | - | - |
| 1777859138 | 6.67° C | 83% | 1014.2 hPa | 0 mm | - | - | - |
| 1777857925 | 6.11° C | 85% | 1014.2 hPa | 0 mm | - | - | - |
| 1777856725 | 7.22° C | 82% | 1014.3 hPa | 0 mm | - | - | - |
| 1777855525 | 7.22° C | 82% | 1014.4 hPa | 0 mm | - | - | - |
| 1777854313 | 8.89° C | 76% | 1014.5 hPa | 0 mm | - | - | - |
| 1777853077 | 9.44° C | 74% | 1014.6 hPa | 0 mm | - | - | - |
| 1777851841 | 9.44° C | 73% | 1014.6 hPa | 0 mm | - | - | - |
| 1777850640 | 9.44° C | 76% | 1014.6 hPa | 0 mm | - | - | - |
| 1777849416 | 10.56° C | 74% | 1014.6 hPa | 0 mm | - | - | - |
| 1777848203 | 11.11° C | 69% | 1014.7 hPa | 0 mm | - | - | - |
| 1777847002 | 10.56° C | 74% | 1014.7 hPa | 0 mm | - | - | - |
| 1777845791 | 10.56° C | 73% | 1014.7 hPa | 0 mm | - | - | - |
| 1777844554 | 10.56° C | 75% | 1014.8 hPa | 0 mm | - | - | - |
| 1777843355 | 11.11° C | 74% | 1014.7 hPa | 0 mm | - | - | - |
| 1777842131 | 11.67° C | 73% | 1014.7 hPa | 0 mm | - | - | - |
| 1777840919 | 11.67° C | 74% | 1014.6 hPa | 0 mm | - | - | - |
| 1777839706 | 12.22° C | 71% | 1014.6 hPa | 0 mm | - | - | - |
| 1777838507 | 12.78° C | 68% | 1014.6 hPa | 0 mm | - | - | - |
| 1777837295 | 15° C | 62% | 1014.6 hPa | 0 mm | - | - | - |
* Rain latest hour (hover to see other rain measurements)
** Current wind speed in m/s (hover to see current wind gust speed)